Location: Hopkins Observatory
(42.6965°N, 73.1843°W)
Time: 18:06:37
(UTC-05:00)

UOSAT-12 - Visible Passes

Search period start: 20 December 2014 00:00
Search period end: 30 December 2014 00:00
Orbit: 594 x 663 km, 64.6° (Epoch: 19 December)

Date Brightness Start Highest point End Pass type
(mag) Time Alt. Az. Time Alt. Az. Time Alt. Az.
20 Dec 9.5 05:45:55 10° N 05:49:00 17° NE 05:52:04 10° ENE visible
21 Dec 8.8 06:05:39 10° NNW 06:09:47 29° NE 06:13:50 10° ESE visible
22 Dec 9.8 04:47:32 10° N 04:49:08 12° NNE 04:50:52 10° NE visible
22 Dec 7.8 06:25:42 10° NNW 06:30:20 55° NE 06:34:53 10° SE visible
23 Dec 9.4 05:07:34 14° N 05:10:03 19° NE 05:13:25 10° E visible
23 Dec 7.2 06:46:00 10° NW 06:50:42 72° WSW 06:55:17 10° SSE visible
24 Dec 8.6 05:27:38 16° N 05:30:46 33° NE 05:34:59 10° ESE visible
25 Dec 9.8 04:10:26 13° NE 04:10:26 13° NE 04:12:29 10° ENE visible
25 Dec 7.5 05:47:46 18° NNW 05:51:16 66° NE 05:55:52 10° SE visible
26 Dec 9.1 04:30:37 22° NNE 04:31:04 22° NE 04:34:42 10° E visible
26 Dec 7.3 06:07:58 16° NW 06:11:35 59° WSW 06:16:06 10° SSE visible
27 Dec 8.2 04:50:54 36° NNE 04:51:43 39° NE 04:56:04 10° ESE visible
27 Dec 8.3 06:28:15 12° WNW 06:31:41 27° WSW 06:35:33 10° S visible
28 Dec 10.3 03:33:53 10° ENE 03:33:53 10° ENE 03:33:57 10° ENE visible
28 Dec 7.1 05:11:15 57° NNW 05:12:10 79° NE 05:16:47 10° SE visible
28 Dec 9.1 06:49:44 10° W 06:51:37 12° WSW 06:53:30 10° SW visible
29 Dec 9.8 03:54:19 18° E 03:54:19 18° E 03:55:54 10° E visible
29 Dec 7.4 05:31:41 44° W 05:32:25 48° WSW 05:36:50 10° SSE visible
